Radiation Dose at Monitoring Post of Fukushima Daini Nuclear Power Station
Date,Time,MP-1(microSv/h),MP-2(microSv/h),MP-3(microSv/h),MP-4(microSv/h),MP-5(microSv/h),MP-6(microSv/h),MP-7(microSv/h),Wind Direction,Wind Velocity(m/s),Rain
2012/12/07,00:00,1.1,0.7,1.1,1.0,1.0,0.5,0.4,west-southwest,3.1,No
2012/12/07,00:10,1.1,0.7,1.1,1.0,1.0,0.5,0.4,west,3.4,No
2012/12/07,00:20,1.1,0.7,1.1,1.0,1.0,0.5,0.4,west-northwest,4.2,No
2012/12/07,00:30,1.1,0.7,1.1,1.0,1.0,0.5,0.4,west,2.5,No
2012/12/07,00:40,1.1,0.7,1.1,1.0,1.0,0.5,0.4,west-northwest,3.5,No
2012/12/07,00:50,1.1,0.7,1.1,1.0,1.0,0.5,0.4,west,2.0,No
2012/12/07,01:00,1.1,0.7,1.1,1.0,1.0,0.5,0.4,west-northwest,3.5,No
2012/12/07,01:10,1.1,0.7,1.1,1.0,1.0,0.5,0.4,west-northwest,3.3,No
2012/12/07,01:20,1.1,0.7,1.1,1.0,1.0,0.5,0.4,west-northwest,2.6,No
2012/12/07,01:30,1.1,0.7,1.1,1.0,1.0,0.5,0.4,northwest,4.2,No
2012/12/07,01:40,1.1,0.7,1.1,1.0,1.0,0.5,0.4,west-northwest,5.2,No
2012/12/07,01:50,1.1,0.7,1.1,1.0,1.0,0.5,0.4,west-northwest,5.0,No
2012/12/07,02:00,1.1,0.7,1.1,1.0,1.0,0.5,0.4,west,4.2,No
2012/12/07,02:10,1.1,0.7,1.1,1.0,1.0,0.5,0.4,west-northwest,5.8,No
2012/12/07,02:20,1.1,0.7,1.1,1.0,1.0,0.5,0.4,west-northwest,2.6,No
2012/12/07,02:30,1.1,0.7,1.1,1.0,1.0,0.5,0.4,west-northwest,4.8,No
2012/12/07,02:40,1.1,0.7,1.1,1.0,1.0,0.5,0.4,northwest,2.5,No
2012/12/07,02:50,1.1,0.7,1.1,1.0,1.0,0.5,0.4,north,1.9,No
2012/12/07,03:00,1.1,0.7,1.1,1.0,1.0,0.5,0.4,north-northwest,1.5,No
2012/12/07,03:10,1.1,0.7,1.1,1.0,1.0,0.5,0.4,north,5.9,No
2012/12/07,03:20,1.1,0.7,1.1,1.0,1.0,0.5,0.4,north,6.4,No
2012/12/07,03:30,1.1,0.7,1.1,1.0,1.0,0.5,0.4,north,5.1,No
2012/12/07,03:40,1.1,0.7,1.1,1.0,1.0,0.5,0.4,north-northwest,5.3,No
2012/12/07,03:50,1.1,0.7,1.1,1.0,1.0,0.5,0.4,north-northwest,6.1,No
2012/12/07,04:00,1.1,0.7,1.1,1.0,1.0,0.5,0.4,north-northwest,6.6,No
2012/12/07,04:10,1.1,0.7,1.1,1.0,1.0,0.5,0.4,north-northwest,5.9,No
2012/12/07,04:20,1.1,0.7,1.1,1.0,1.0,0.5,0.4,north-northwest,4.3,No
2012/12/07,04:30,1.1,0.7,1.1,1.0,1.0,0.5,0.4,northwest,4.8,No
2012/12/07,04:40,1.1,0.7,1.1,1.0,1.0,0.5,0.4,north-northwest,4.9,No
2012/12/07,04:50,1.1,0.7,1.1,1.0,1.0,0.5,0.4,north-northwest,6.0,No
2012/12/07,05:00,1.1,0.7,1.1,1.0,1.0,0.5,0.4,north-northwest,6.6,No
2012/12/07,05:10,1.1,0.7,1.1,1.0,1.0,0.5,0.4,northwest,3.8,No
2012/12/07,05:20,1.1,0.7,1.1,1.0,1.0,0.5,0.4,north,4.2,No
2012/12/07,05:30,1.1,0.7,1.1,1.0,1.0,0.5,0.4,north,3.5,No
2012/12/07,05:40,1.1,0.7,1.1,1.0,1.0,0.5,0.4,north,3.6,No
2012/12/07,05:50,1.1,0.7,1.1,1.0,1.0,0.5,0.4,north-northwest,4.8,No
2012/12/07,06:00,1.1,0.7,1.1,1.0,1.0,0.5,0.4,northwest,6.2,No
2012/12/07,06:10,1.1,0.7,1.1,1.0,1.0,0.5,0.4,northwest,6.7,No
2012/12/07,06:20,1.1,0.7,1.1,1.0,1.0,0.5,0.4,northwest,5.1,No
2012/12/07,06:30,1.1,0.7,1.1,1.0,1.0,0.5,0.4,west-northwest,4.0,No
2012/12/07,06:40,1.1,0.7,1.1,1.0,1.0,0.5,0.4,northwest,4.4,No
2012/12/07,06:50,1.1,0.7,1.1,1.0,1.0,0.5,0.4,northwest,3.4,No
2012/12/07,07:00,1.1,0.7,1.1,1.0,1.0,0.5,0.4,north-northwest,2.9,No
2012/12/07,07:10,1.1,0.7,1.1,1.0,1.0,0.5,0.4,north-northwest,3.1,No
2012/12/07,07:20,1.1,0.7,1.1,1.0,1.0,0.5,0.4,north-northwest,2.2,No
2012/12/07,07:30,1.1,0.7,1.1,1.0,1.0,0.5,0.4,west-northwest,4.5,No
2012/12/07,07:40,1.1,0.7,1.1,1.0,1.0,0.5,0.4,west,6.4,No
2012/12/07,07:50,1.1,0.7,1.1,1.0,1.0,0.5,0.4,west,3.9,No
2012/12/07,08:00,1.1,0.7,1.1,1.0,1.0,0.5,0.4,west-northwest,2.8,No
2012/12/07,08:10,1.1,0.7,1.1,1.0,1.0,0.5,0.4,west-northwest,4.6,No
2012/12/07,08:20,1.1,0.7,1.1,1.0,1.0,0.5,0.4,northwest,2.8,No
2012/12/07,08:30,1.1,0.7,1.1,1.0,1.0,0.5,0.4,west-northwest,4.6,No
2012/12/07,08:40,1.1,0.7,1.1,1.0,1.0,0.5,0.4,west-northwest,4.8,No
2012/12/07,08:50,1.1,0.7,1.1,1.0,1.0,0.5,0.4,west-northwest,3.6,No
2012/12/07,09:00,1.1,0.7,1.1,1.0,1.0,0.5,0.4,west,5.1,No
2012/12/07,09:10,1.1,0.7,1.1,1.0,1.0,0.5,0.4,west-northwest,3.5,No
2012/12/07,09:20,1.1,0.7,1.1,1.0,1.0,0.5,0.4,west-northwest,3.7,No
2012/12/07,09:30,1.1,0.7,1.1,1.0,1.0,0.5,0.4,west,2.7,No
2012/12/07,09:40,1.1,0.7,1.1,1.0,1.0,0.5,0.4,west-northwest,2.6,No
2012/12/07,09:50,1.1,0.7,1.1,1.0,1.0,0.5,0.4,west,5.3,No
2012/12/07,10:00,1.1,0.7,1.1,1.0,1.0,0.5,0.4,west,5.0,No
2012/12/07,10:10,1.1,0.7,1.1,1.0,1.0,0.5,0.4,west,5.1,No
2012/12/07,10:20,1.1,0.7,1.1,1.0,1.0,0.5,0.4,west-southwest,4.4,No
2012/12/07,10:30,1.1,0.7,1.1,1.0,1.0,0.5,0.4,southwest,7.7,No
2012/12/07,10:40,1.1,0.7,1.1,1.0,1.0,0.5,0.4,west-southwest,7.5,No
2012/12/07,10:50,1.1,0.7,1.1,1.0,1.0,0.5,0.4,west-southwest,5.9,No
2012/12/07,11:00,1.1,0.7,1.1,1.0,1.0,0.5,0.4,west-southwest,6.7,No
2012/12/07,11:10,1.1,0.7,1.1,1.0,1.0,0.5,0.4,west-southwest,5.3,No
2012/12/07,11:20,1.1,0.7,1.1,1.0,1.0,0.5,0.4,west-southwest,5.0,No
2012/12/07,11:30,1.1,0.7,1.1,1.0,1.0,0.5,0.4,west,2.5,No
2012/12/07,11:40,1.1,0.7,1.1,1.0,1.0,0.5,0.4,west,2.2,No
2012/12/07,11:50,1.1,0.7,1.1,1.0,1.0,0.5,0.4,west,3.1,No
2012/12/07,12:00,1.1,0.7,1.1,1.0,1.0,0.5,0.4,southwest,3.6,No
2012/12/07,12:10,1.1,0.7,1.1,1.0,1.0,0.5,0.4,west-southwest,4.0,No
2012/12/07,12:20,1.1,0.7,1.1,1.0,1.0,0.5,0.4,southwest,3.0,No
2012/12/07,12:30,1.1,0.7,1.1,1.0,1.0,0.5,0.4,west-southwest,3.9,No
2012/12/07,12:40,1.1,0.7,1.1,1.0,1.0,0.5,0.4,west,6.6,No
2012/12/07,12:50,1.1,0.7,1.1,1.0,1.0,0.5,0.4,west-northwest,5.2,No
2012/12/07,13:00,1.1,0.7,1.1,1.0,1.0,0.5,0.4,west,7.0,No
2012/12/07,13:10,1.1,0.7,1.1,1.0,1.0,0.5,0.4,west-northwest,7.3,No
2012/12/07,13:20,1.1,0.7,1.1,1.0,1.0,0.5,0.4,northwest,6.0,No
2012/12/07,13:30,1.1,0.7,1.1,1.0,1.0,0.5,0.4,west-northwest,7.1,No
2012/12/07,13:40,1.1,0.7,1.1,1.0,1.0,0.5,0.4,northwest,9.1,No
2012/12/07,13:50,1.1,0.7,1.1,1.0,1.0,0.5,0.4,west-northwest,8.4,No
2012/12/07,14:00,1.1,0.7,1.1,1.0,1.0,0.5,0.4,west-northwest,7.1,No
2012/12/07,14:10,1.1,0.7,1.1,1.0,1.0,0.5,0.4,northwest,9.2,No
2012/12/07,14:20,1.1,0.7,1.1,1.0,1.0,0.5,0.4,west-northwest,7.9,No
2012/12/07,14:30,1.1,0.7,1.1,1.0,1.0,0.5,0.4,west-northwest,8.6,No
2012/12/07,14:40,1.1,0.7,1.1,1.0,1.0,0.5,0.4,northwest,7.8,No
2012/12/07,14:50,1.1,0.7,1.1,1.0,1.0,0.5,0.4,west-northwest,6.7,No
2012/12/07,15:00,1.1,0.7,1.1,1.0,1.0,0.5,0.4,west-northwest,7.5,No
2012/12/07,15:10,1.1,0.7,1.1,1.0,1.0,0.5,0.4,west-northwest,5.0,No
2012/12/07,15:20,1.1,0.7,1.1,1.0,1.0,0.5,0.4,northwest,4.1,No
2012/12/07,15:30,1.1,0.7,1.1,1.0,1.0,0.5,0.4,west-northwest,8.8,No
2012/12/07,15:40,1.1,0.7,1.1,1.0,1.0,0.5,0.4,northwest,8.1,No
2012/12/07,15:50,1.1,0.7,1.1,1.0,1.0,0.5,0.4,west-northwest,8.8,No
2012/12/07,16:00,1.1,0.7,1.1,1.0,1.0,0.5,0.4,west-northwest,11.0,No
2012/12/07,16:10,1.1,0.7,1.1,1.0,1.0,0.5,0.4,west-northwest,11.1,No
2012/12/07,16:20,1.1,0.7,1.1,1.0,1.0,0.5,0.4,west-northwest,9.9,No
2012/12/07,16:30,1.1,0.7,1.1,1.0,1.0,0.5,0.4,west-northwest,9.9,No
2012/12/07,16:40,1.1,0.7,1.1,1.0,1.0,0.5,0.4,west-northwest,8.4,No
2012/12/07,16:50,1.1,0.7,1.1,1.0,1.0,0.5,0.4,west-northwest,9.2,No
2012/12/07,17:00,1.1,0.7,1.1,1.0,1.0,0.5,0.4,west-northwest,8.4,No
2012/12/07,17:10,1.1,0.7,1.1,1.0,1.0,0.5,0.4,west-northwest,8.9,No
2012/12/07,17:20,1.1,0.7,1.1,1.0,1.0,0.5,0.4,west-northwest,10.7,No
2012/12/07,17:30,1.1,0.7,1.1,1.0,1.0,0.5,0.4,west-northwest,11.0,No
2012/12/07,17:40,1.1,0.7,1.1,1.0,1.0,0.5,0.4,west-northwest,8.9,No
2012/12/07,17:50,1.1,0.7,1.1,1.0,1.0,0.5,0.4,west-northwest,8.3,No
2012/12/07,18:00,1.1,0.7,1.1,1.0,1.0,0.5,0.4,west-northwest,9.3,No
2012/12/07,18:10,1.1,0.7,1.1,1.0,1.0,0.5,0.4,west-northwest,8.1,No
2012/12/07,18:20,1.1,0.7,1.1,1.0,1.0,0.5,0.4,west-northwest,6.6,No
2012/12/07,18:30,1.1,0.7,1.1,1.0,1.0,0.5,0.4,west-northwest,7.7,No
2012/12/07,18:40,1.1,0.7,1.1,1.0,1.0,0.5,0.4,west-northwest,6.8,No
2012/12/07,18:50,1.1,0.7,1.1,1.0,1.0,0.5,0.4,west-northwest,4.2,No
2012/12/07,19:00,1.1,0.7,1.1,1.0,1.0,0.5,0.4,northwest,4.3,No
2012/12/07,19:10,1.1,0.7,1.1,1.0,1.0,0.5,0.4,west-northwest,4.4,No
2012/12/07,19:20,1.1,0.7,1.1,1.0,1.0,0.5,0.4,west-northwest,6.2,No
2012/12/07,19:30,1.1,0.7,1.1,1.0,1.0,0.5,0.4,west-northwest,3.7,No
2012/12/07,19:40,1.1,0.7,1.1,1.0,1.0,0.5,0.4,-,CALM,No
2012/12/07,19:50,1.1,0.7,1.1,1.0,1.0,0.5,0.4,north-northeast,2.8,No
2012/12/07,20:00,1.1,0.7,1.1,1.0,1.0,0.5,0.4,north-northeast,2.7,No
2012/12/07,20:10,1.1,0.7,1.1,1.0,1.0,0.5,0.4,north,3.8,No
2012/12/07,20:20,1.1,0.7,1.1,1.0,1.0,0.5,0.4,north,3.8,No
2012/12/07,20:30,1.1,0.7,1.1,1.0,1.0,0.5,0.4,north-northwest,3.9,No
2012/12/07,20:40,1.1,0.7,1.1,1.0,1.0,0.5,0.4,north-northeast,2.4,No
2012/12/07,20:50,1.1,0.7,1.1,1.0,1.0,0.5,0.4,north-northeast,2.5,No
2012/12/07,21:00,1.1,0.7,1.1,1.0,1.0,0.5,0.4,north-northeast,3.2,No
2012/12/07,21:10,1.1,0.7,1.1,1.0,1.0,0.5,0.4,north-northeast,4.4,No
2012/12/07,21:20,1.1,0.7,1.1,1.0,1.0,0.5,0.4,north-northeast,6.2,No
2012/12/07,21:30,1.1,0.7,1.1,1.0,1.0,0.5,0.4,north,5.7,No
2012/12/07,21:40,1.1,0.7,1.1,1.0,1.0,0.5,0.4,north,4.2,No
2012/12/07,21:50,1.1,0.7,1.1,1.0,1.0,0.5,0.4,north-northwest,4.7,No
2012/12/07,22:00,1.1,0.7,1.1,1.0,1.0,0.5,0.4,northwest,3.1,No
2012/12/07,22:10,1.1,0.7,1.1,1.0,1.0,0.5,0.4,north-northwest,3.7,No
2012/12/07,22:20,1.1,0.7,1.1,1.0,1.0,0.5,0.4,north,3.3,No
2012/12/07,22:30,1.1,0.7,1.1,1.0,1.0,0.5,0.4,north-northwest,3.8,No
2012/12/07,22:40,1.1,0.7,1.1,1.0,1.0,0.5,0.4,north-northwest,2.7,No
2012/12/07,22:50,1.1,0.7,1.1,1.0,1.0,0.5,0.4,north-northwest,2.5,No
2012/12/07,23:00,1.1,0.7,1.1,1.0,1.0,0.5,0.4,north-northwest,3.4,No
2012/12/07,23:10,1.1,0.7,1.1,1.0,1.0,0.5,0.4,north,4.4,No
2012/12/07,23:20,1.1,0.7,1.1,1.0,1.0,0.5,0.4,north,4.3,No
2012/12/07,23:30,1.1,0.7,1.1,1.0,1.0,0.5,0.4,north-northwest,3.4,No
2012/12/07,23:40,1.1,0.7,1.1,1.0,1.0,0.5,0.4,north,3.7,No
2012/12/07,23:50,1.1,0.7,1.1,1.0,1.0,0.5,0.4,north,4.1,No
